"Period start","avg(HW err(1)/warn(2) (#))","avg(Visibility (m))","avg(Weather code (#))","avg(Precip intensity (mm/h))","min(HW err(1)/warn(2) (#))","max(HW err(1)/warn(2) (#))","std(HW err(1)/warn(2) (#))","med(HW err(1)/warn(2) (#))","min(Visibility (m))","max(Visibility (m))","std(Visibility (m))","med(Visibility (m))","min(Weather code (#))","max(Weather code (#))","std(Weather code (#))","med(Weather code (#))","min(Precip intensity (mm/h))","max(Precip intensity (mm/h))","std(Precip intensity (mm/h))","med(Precip intensity (mm/h))"
2016-07-11 00:00:00,2,45543,0,0.00,2,2,0,2,35807,50000,4994,47651,0,0,0,0,0.00,0.00,0.00,0.00
2016-07-11 00:10:00,2,39623,0,0.00,2,2,0,2,14605,50000,12005,44017,0,0,0,0,0.00,0.00,0.00,0.00
2016-07-11 00:20:00,2,47860,0,0.00,2,2,0,2,42615,50000,2623,49146,0,0,0,0,0.00,0.00,0.00,0.00
2016-07-11 00:30:00,2,48596,0,0.00,2,2,0,2,45181,50000,1627,49241,0,0,0,0,0.00,0.00,0.00,0.00
2016-07-11 00:40:00,2,47148,0,0.00,2,2,0,2,37064,50000,4029,49617,0,0,0,0,0.00,0.00,0.00,0.00
2016-07-11 00:50:00,2,49648,0,0.00,2,2,0,2,47204,50000,843,50000,0,0,0,0,0.00,0.00,0.00,0.00
2016-07-11 01:00:00,2,48716,0,0.00,2,2,0,2,38731,50000,3343,50000,0,0,0,0,0.00,0.00,0.00,0.00
2016-07-11 01:10:00,2,46650,0,0.00,2,2,0,2,39150,50000,3678,47678,0,0,0,0,0.00,0.00,0.00,0.00
2016-07-11 01:20:00,2,46669,0,0.00,2,2,0,2,33529,50000,5100,49224,0,0,0,0,0.00,0.00,0.00,0.00
2016-07-11 01:30:00,2,50000,0,0.00,2,2,0,2,50000,50000,0,50000,0,0,0,0,0.00,0.00,0.00,0.00
2016-07-11 01:40:00,2,46831,0,0.00,2,2,0,2,37339,50000,4084,48894,0,0,0,0,0.00,0.00,0.00,0.00
2016-07-11 01:50:00,2,47726,0,0.00,2,2,0,2,41435,50000,3523,50000,0,0,0,0,0.00,0.00,0.00,0.00
2016-07-11 02:00:00,2,49572,0,0.00,2,2,0,2,45720,50000,1284,50000,0,0,0,0,0.00,0.00,0.00,0.00
2016-07-11 02:10:00,2,48409,0,0.00,2,2,0,2,40286,50000,3103,50000,0,0,0,0,0.00,0.00,0.00,0.00
2016-07-11 02:20:00,2,48609,0,0.00,2,2,0,2,42110,50000,2695,50000,0,0,0,0,0.00,0.00,0.00,0.00
2016-07-11 02:30:00,2,48921,0,0.00,2,2,0,2,45601,50000,1681,50000,0,0,0,0,0.00,0.00,0.00,0.00
2016-07-11 02:40:00,2,48826,0,0.00,2,2,0,2,44811,50000,1698,49940,0,0,0,0,0.00,0.00,0.00,0.00
2016-07-11 02:50:00,2,45124,0,0.00,2,2,0,2,36975,50000,4189,44908,0,0,0,0,0.00,0.00,0.00,0.00
2016-07-11 03:00:00,2,48784,0,0.00,2,2,0,2,39676,50000,3085,50000,0,0,0,0,0.00,0.00,0.00,0.00
2016-07-11 03:10:00,2,49941,0,0.00,2,2,0,2,49410,50000,177,50000,0,0,0,0,0.00,0.00,0.00,0.00
2016-07-11 03:20:00,2,37931,0,0.00,2,2,0,2,11898,50000,12970,41198,0,0,0,0,0.00,0.00,0.00,0.00
2016-07-11 03:30:00,2,50000,0,0.00,2,2,0,2,50000,50000,0,50000,0,0,0,0,0.00,0.00,0.00,0.00
2016-07-11 03:40:00,2,48130,0,0.00,2,2,0,2,41250,50000,2808,49752,0,0,0,0,0.00,0.00,0.00,0.00
2016-07-11 03:50:00,2,49965,0,0.00,2,2,0,2,49652,50000,104,50000,0,0,0,0,0.00,0.00,0.00,0.00
2016-07-11 04:00:00,2,44338,0,0.00,2,2,0,2,32421,50000,6240,46316,0,0,0,0,0.00,0.00,0.00,0.00
2016-07-11 04:10:00,2,49350,0,0.00,2,2,0,2,46124,50000,1206,50000,0,0,0,0,0.00,0.00,0.00,0.00
2016-07-11 04:20:00,2,50000,0,0.00,2,2,0,2,50000,50000,0,50000,0,0,0,0,0.00,0.00,0.00,0.00
2016-07-11 04:30:00,2,49803,0,0.00,2,2,0,2,48166,50000,547,50000,0,0,0,0,0.00,0.00,0.00,0.00
2016-07-11 04:40:00,2,49926,0,0.00,2,2,0,2,49258,50000,223,50000,0,0,0,0,0.00,0.00,0.00,0.00
2016-07-11 04:50:00,2,49581,0,0.00,2,2,0,2,47311,50000,816,50000,0,0,0,0,0.00,0.00,0.00,0.00
2016-07-11 05:00:00,2,49307,0,0.00,2,2,0,2,43068,50000,2080,50000,0,0,0,0,0.00,0.00,0.00,0.00
2016-07-11 05:10:00,2,49928,0,0.00,2,2,0,2,49371,50000,188,50000,0,0,0,0,0.00,0.00,0.00,0.00
2016-07-11 05:20:00,2,49551,0,0.00,2,2,0,2,47504,50000,790,49985,0,0,0,0,0.00,0.00,0.00,0.00
2016-07-11 05:30:00,2,49544,0,0.00,2,2,0,2,47828,50000,741,50000,0,0,0,0,0.00,0.00,0.00,0.00
2016-07-11 05:40:00,2,50000,0,0.00,2,2,0,2,50000,50000,0,50000,0,0,0,0,0.00,0.00,0.00,0.00
2016-07-11 05:50:00,2,47821,0,0.00,2,2,0,2,38323,50000,3527,49982,0,0,0,0,0.00,0.00,0.00,0.00
2016-07-11 06:00:00,2,49300,0,0.00,2,2,0,2,43484,50000,1942,50000,0,0,0,0,0.00,0.00,0.00,0.00
2016-07-11 06:10:00,2,48599,0,0.00,2,2,0,2,44448,50000,1883,49858,0,0,0,0,0.00,0.00,0.00,0.00
2016-07-11 06:20:00,2,45527,0,0.00,2,2,0,2,29738,50000,6449,48570,0,0,0,0,0.00,0.00,0.00,0.00
2016-07-11 06:30:00,2,49867,0,0.00,2,2,0,2,48671,50000,399,50000,0,0,0,0,0.00,0.00,0.00,0.00
2016-07-11 06:40:00,2,48665,0,0.00,2,2,0,2,44228,50000,1996,50000,0,0,0,0,0.00,0.00,0.00,0.00
2016-07-11 06:50:00,2,49064,0,0.00,2,2,0,2,43681,50000,1876,50000,0,0,0,0,0.00,0.00,0.00,0.00
2016-07-11 07:00:00,2,49790,0,0.00,2,2,0,2,48785,50000,427,50000,0,0,0,0,0.00,0.00,0.00,0.00
2016-07-11 07:10:00,2,46972,0,0.00,2,2,0,2,42323,50000,2801,46649,0,0,0,0,0.00,0.00,0.00,0.00
2016-07-11 07:20:00,2,49433,0,0.00,2,2,0,2,48076,50000,866,50000,0,0,0,0,0.00,0.00,0.00,0.00
2016-07-11 07:30:00,2,48639,0,0.00,2,2,0,2,40960,50000,2731,50000,0,0,0,0,0.00,0.00,0.00,0.00
2016-07-11 07:40:00,2,35575,0,0.00,2,2,0,2,8074,50000,17344,47708,0,0,0,0,0.00,0.00,0.00,0.00
2016-07-11 07:50:00,2,49700,0,0.00,2,2,0,2,48511,50000,500,50000,0,0,0,0,0.00,0.00,0.00,0.00
2016-07-11 08:00:00,2,49657,0,0.00,2,2,0,2,47802,50000,659,50000,0,0,0,0,0.00,0.00,0.00,0.00
2016-07-11 08:10:00,2,49931,0,0.00,2,2,0,2,49310,50000,207,50000,0,0,0,0,0.00,0.00,0.00,0.00
2016-07-11 08:20:00,2,49858,0,0.00,2,2,0,2,48670,50000,397,50000,0,0,0,0,0.00,0.00,0.00,0.00
2016-07-11 08:30:00,2,49627,0,0.00,2,2,0,2,46272,50000,1118,50000,0,0,0,0,0.00,0.00,0.00,0.00
2016-07-11 08:40:00,2,50000,0,0.00,2,2,0,2,50000,50000,0,50000,0,0,0,0,0.00,0.00,0.00,0.00
2016-07-11 08:50:00,2,49956,0,0.00,2,2,0,2,49565,50000,130,50000,0,0,0,0,0.00,0.00,0.00,0.00
2016-07-11 09:00:00,2,49946,0,0.00,2,2,0,2,49457,50000,163,50000,0,0,0,0,0.00,0.00,0.00,0.00
2016-07-11 09:10:00,2,50000,0,0.00,2,2,0,2,50000,50000,0,50000,0,0,0,0,0.00,0.00,0.00,0.00
2016-07-11 09:20:00,2,49895,0,0.00,2,2,0,2,49002,50000,298,50000,0,0,0,0,0.00,0.00,0.00,0.00
2016-07-11 09:30:00,2,49455,0,0.00,2,2,0,2,47594,50000,807,50000,0,0,0,0,0.00,0.00,0.00,0.00
2016-07-11 09:40:00,2,49834,0,0.00,2,2,0,2,48344,50000,497,50000,0,0,0,0,0.00,0.00,0.00,0.00
2016-07-11 09:50:00,2,49525,0,0.00,2,2,0,2,45252,50000,1424,50000,0,0,0,0,0.00,0.00,0.00,0.00
2016-07-11 10:00:00,2,50000,0,0.00,2,2,0,2,50000,50000,0,50000,0,0,0,0,0.00,0.00,0.00,0.00
2016-07-11 10:10:00,2,35438,12,0.68,2,2,0,2,9863,50000,15848,41241,0,61,24,0,0.00,5.40,1.63,0.00
2016-07-11 10:20:00,2,36290,24,1.67,2,2,0,2,9060,50000,16733,48006,0,61,30,0,0.00,9.25,2.92,0.00
2016-07-11 10:30:00,2,43869,18,0.05,2,2,0,2,30628,50000,6638,45488,0,51,23,0,0.00,0.30,0.09,0.00
2016-07-11 10:40:00,2,26469,31,2.67,2,2,0,2,3121,50000,17909,25250,0,62,31,30,0.00,15.00,5.23,0.00
2016-07-11 10:50:00,2,20351,18,2.37,2,2,0,2,5864,47625,13938,16988,0,62,28,0,0.00,17.85,5.32,0.00
2016-07-11 11:00:00,2,18201,61,3.44,2,2,0,2,5326,36282,11152,15840,61,62,0,61,0.05,12.25,3.75,2.28
2016-07-11 11:10:00,2,45386,17,0.00,2,2,0,2,11374,50000,11455,50000,0,61,27,0,0.00,0.00,0.00,0.00
2016-07-11 11:20:00,2,38776,24,0.63,2,2,0,2,25001,50000,8139,40633,0,61,30,0,0.00,3.40,1.10,0.00
2016-07-11 11:30:00,2,49882,0,0.00,2,2,0,2,48817,50000,355,50000,0,0,0,0,0.00,0.00,0.00,0.00
2016-07-11 11:40:00,2,50000,0,0.00,2,2,0,2,50000,50000,0,50000,0,0,0,0,0.00,0.00,0.00,0.00
2016-07-11 11:50:00,2,48753,0,0.00,2,2,0,2,43523,50000,1967,50000,0,0,0,0,0.00,0.00,0.00,0.00
2016-07-11 12:00:00,2,49547,0,0.00,2,2,0,2,47743,50000,723,50000,0,0,0,0,0.00,0.00,0.00,0.00
2016-07-11 12:10:00,2,50000,0,0.00,2,2,0,2,50000,50000,0,50000,0,0,0,0,0.00,0.00,0.00,0.00
2016-07-11 12:20:00,2,49752,0,0.00,2,2,0,2,47515,50000,746,50000,0,0,0,0,0.00,0.00,0.00,0.00
2016-07-11 12:30:00,2,50000,0,0.00,2,2,0,2,50000,50000,0,50000,0,0,0,0,0.00,0.00,0.00,0.00
2016-07-11 12:40:00,2,50000,0,0.00,2,2,0,2,50000,50000,0,50000,0,0,0,0,0.00,0.00,0.00,0.00
2016-07-11 12:50:00,2,50000,0,0.00,2,2,0,2,50000,50000,0,50000,0,0,0,0,0.00,0.00,0.00,0.00
2016-07-11 13:00:00,2,38199,4,0.01,2,2,0,2,19654,50000,9532,39910,0,40,12,0,0.00,0.15,0.05,0.00
2016-07-11 13:10:00,2,49258,41,0.10,2,2,0,2,46451,50000,1099,49762,0,51,14,41,0.00,0.50,0.16,0.00
2016-07-11 13:20:00,2,43599,0,0.00,2,2,0,2,31133,50000,6645,44422,0,0,0,0,0.00,0.00,0.00,0.00
2016-07-11 13:30:00,2,48477,0,0.00,2,2,0,2,41308,50000,2914,50000,0,0,0,0,0.00,0.00,0.00,0.00
2016-07-11 13:40:00,2,48232,0,0.00,2,2,0,2,41464,50000,3020,50000,0,0,0,0,0.00,0.00,0.00,0.00
2016-07-11 13:50:00,2,50000,0,0.00,2,2,0,2,50000,50000,0,50000,0,0,0,0,0.00,0.00,0.00,0.00
2016-07-11 14:00:00,2,50000,0,0.00,2,2,0,2,50000,50000,0,50000,0,0,0,0,0.00,0.00,0.00,0.00
"Period start","avg(HW err(1)/warn(2) (#))","avg(Visibility (m))","avg(Weather code (#))","avg(Precip intensity (mm/h))","min(HW err(1)/warn(2) (#))","max(HW err(1)/warn(2) (#))","std(HW err(1)/warn(2) (#))","med(HW err(1)/warn(2) (#))","min(Visibility (m))","max(Visibility (m))","std(Visibility (m))","med(Visibility (m))","min(Weather code (#))","max(Weather code (#))","std(Weather code (#))","med(Weather code (#))","min(Precip intensity (mm/h))","max(Precip intensity (mm/h))","std(Precip intensity (mm/h))","med(Precip intensity (mm/h))"
2016-07-11 21:10:00,2,48805,0,0.00,2,2,0,2,44729,50000,1893,50000,0,0,0,0,0.00,0.00,0.00,0.00
2016-07-11 21:20:00,2,49493,0,0.00,2,2,0,2,46033,50000,1199,50000,0,0,0,0,0.00,0.00,0.00,0.00
2016-07-11 21:30:00,2,49292,0,0.00,2,2,0,2,47268,50000,1019,50000,0,0,0,0,0.00,0.00,0.00,0.00
2016-07-11 21:40:00,2,49920,0,0.00,2,2,0,2,49200,50000,240,50000,0,0,0,0,0.00,0.00,0.00,0.00
2016-07-11 21:50:00,2,49572,0,0.00,2,2,0,2,48248,50000,682,50000,0,0,0,0,0.00,0.00,0.00,0.00
2016-07-11 22:00:00,2,48792,0,0.00,2,2,0,2,41247,50000,2574,50000,0,0,0,0,0.00,0.00,0.00,0.00
2016-07-11 22:10:00,2,48725,0,0.00,2,2,0,2,44768,50000,1736,50000,0,0,0,0,0.00,0.00,0.00,0.00
2016-07-11 22:20:00,2,47022,0,0.00,2,2,0,2,40139,50000,3505,48694,0,0,0,0,0.00,0.00,0.00,0.00
2016-07-11 22:30:00,2,42070,0,0.00,2,2,0,2,28953,50000,7950,44606,0,0,0,0,0.00,0.00,0.00,0.00
2016-07-11 22:40:00,1,44641,0,0.00,0,2,1,2,31828,50000,6850,48315,0,0,0,0,0.00,0.00,0.00,0.00
2016-07-11 22:50:00,1,44125,0,0.00,0,2,1,2,31461,50000,6406,46143,0,0,0,0,0.00,0.00,0.00,0.00
2016-07-11 23:00:00,2,39848,0,0.00,2,2,0,2,22944,50000,8126,41803,0,0,0,0,0.00,0.00,0.00,0.00
2016-07-11 23:10:00,2,47888,0,0.00,0,2,1,2,41629,50000,2778,49332,0,0,0,0,0.00,0.00,0.00,0.00
2016-07-11 23:20:00,2,44175,0,0.00,2,2,0,2,35634,50000,4978,46089,0,0,0,0,0.00,0.00,0.00,0.00
2016-07-11 23:30:00,2,45310,0,0.00,2,2,0,2,38030,50000,4580,45828,0,0,0,0,0.00,0.00,0.00,0.00
2016-07-11 23:40:00,2,46314,0,0.00,2,2,0,2,39488,50000,2998,46268,0,0,0,0,0.00,0.00,0.00,0.00
2016-07-11 23:50:00,2,40093,0,0.00,2,2,0,2,22058,50000,8772,39116,0,0,0,0,0.00,0.00,0.00,0.00
